This is the latest recevied weather packets stored in our database for station/object AA6HF. If no packets are shown the sender has not sent any weather packets the latest 10 day(s).
| Time | Temp. | Humidity | Pressure | Rain* | Wind** | Luminosity | Snow |
|---|---|---|---|---|---|---|---|
| 1777841437 | 30° C | 28% | 1005.2 hPa | 0 mm | - | - | - |
| 1777841137 | 30° C | 27% | 1005.3 hPa | 0 mm | - | - | - |
| 1777840837 | 30.56° C | 26% | 1005.2 hPa | 0 mm | - | - | - |
| 1777840537 | 30.56° C | 25% | 1005.2 hPa | 0 mm | - | - | - |
| 1777840237 | 30.56° C | 24% | 1005.3 hPa | 0 mm | - | - | - |
| 1777839937 | 30.56° C | 25% | 1005.3 hPa | 0 mm | - | - | - |
| 1777839638 | 31.11° C | 24% | 1005.3 hPa | 0 mm | - | - | - |
| 1777839337 | 31.11° C | 23% | 1005.4 hPa | 0 mm | - | - | - |
| 1777839038 | 31.67° C | 23% | 1005.2 hPa | 0 mm | - | - | - |
| 1777838738 | 31.11° C | 24% | 1005.3 hPa | 0 mm | - | - | - |
| 1777838438 | 31.11° C | 23% | 1005.5 hPa | 0 mm | - | - | - |
| 1777838138 | 31.11° C | 22% | 1005.6 hPa | 0 mm | - | - | - |
| 1777837838 | 31.11° C | 23% | 1005.6 hPa | 0 mm | - | - | - |
| 1777837538 | 31.11° C | 22% | 1005.7 hPa | 0 mm | - | - | - |
| 1777837238 | 31.11° C | 23% | 1005.7 hPa | 0 mm | - | - | - |
| 1777836938 | 30.56° C | 24% | 1005.8 hPa | 0 mm | - | - | - |
| 1777836638 | 30.56° C | 22% | 1006 hPa | 0 mm | - | - | - |
| 1777836338 | 30.56° C | 24% | 1006.1 hPa | 0 mm | - | - | - |
| 1777836038 | 31.11° C | 22% | 1006.1 hPa | 0 mm | - | - | - |
| 1777835738 | 31.11° C | 23% | 1006.2 hPa | 0 mm | - | - | - |
| 1777835438 | 31.11° C | 21% | 1006.2 hPa | 0 mm | - | - | - |
| 1777835138 | 31.11° C | 24% | 1006.2 hPa | 0 mm | - | - | - |
| 1777834838 | 31.11° C | 24% | 1006.3 hPa | 0 mm | - | - | - |
| 1777834538 | 31.67° C | 22% | 1006.4 hPa | 0 mm | - | - | - |
| 1777834238 | 31.67° C | 20% | 1006.3 hPa | 0 mm | - | - | - |
* Rain latest hour (hover to see other rain measurements)
** Current wind speed in m/s (hover to see current wind gust speed)